Location: Cruquius
(52.3348°N, 4.6319°E)
Time: 03:18:45
(UTC+00:00)

SPOT 1/Viking Rocket - Pass Details

Date: 12 May 2021
Orbit: 776 x 795 km, 98.4° (Epoch: 14 June)

Event Time Altitude Azimuth Distance (km) Brightness Sun altitude
Exits shadow 20:52:17 - 175° (S) 2,511 5.7 -10.7°
Reaches altitude 10° 20:52:42 10° 176° (S) 2,352 5.5 -10.7°
Maximum altitude 20:57:51 64° 257° (WSW) 875 3.9 -11.2°
Drops below altitude 10° 21:03:02 10° 340° (NNW) 2,358 7.3 -11.7°
Sets 21:05:23 0° 343° (NNW) 3,289 8.2 -11.9°
